Weather Roundup
Issued by NWS

Home | Current Version | Previous Version | Text Only | Print | Product List | Glossary On
Versions: 1 2 3 4 5 6 7 8 9 10 11 12 13 14 15 16 17 18 19 20 21 22 23 24 25 26 27 28 29 30 31 32 33 34 35 36 37 38 39 40 41 42 43 44 45 46 47 48 49 50
000
NZUS93 KARX 280710
HRRWXR

CURRENT HOURLY OBSERVATIONS ACROSS
MUCH OF THE UPPER MISSISSIPPI VALLEY
NATIONAL WEATHER SERVICE LA CROSSE WI
200 AM CDT MON JUL 28 2014


...SOUTHEAST MINNESOTA...


CITY           SKY/WX    TMP DP  RH WIND       PRES   REMARKS
ROCHESTER      CLOUDY    57  54  89 NW6       30.15R
ROCHESTER/MAYO CLOUDY    58  53  81 NW5       30.14R
WINONA         CLEAR     57  54  88 N3        30.12S
AUSTIN         CLOUDY    59  55  88 N3        30.14R
ALBERT LEA     CLOUDY    63  55  77 N3        30.15R
DODGE CENTER   CLOUDY    59  55  88 N7        30.14S
PRESTON        CLEAR     55  55 100 N3        30.13R
OWATONNA       CLOUDY    63  54  72 N3        30.15R
FARIBAULT      CLOUDY    64  54  68 CALM      30.15R
$$

...ELSEWHERE IN MINNESOTA...


CITY           SKY/WX    TMP DP  RH WIND       PRES   REMARKS
MINNEAPOLIS    CLOUDY    65  56  72 NW7       30.14R
INTNL FALLS    CLEAR     49  48  97 NW3       30.16S
DULUTH         MOCLDY    58  53  84 N6        30.13R
RED WING       CLOUDY    61  55  82 N3        30.11S
REDWOOD FALLS  LGT RAIN  62  59  90 N6        30.18R
MANKATO        CLOUDY    63  57  82 NW5       30.15S
WORTHINGTON    PTCLDY    55  54  94 NW7       30.21R
FAIRMONT       CLOUDY    61  55  82 N7        30.16S
$$

...SOUTHWEST WISCONSIN...


CITY           SKY/WX    TMP DP  RH WIND       PRES   REMARKS
LA CROSSE      CLEAR     59  54  83 N7        30.09R
PRAIRIE DU CHI CLEAR     62  53  71 N7        30.07R
BOSCOBEL       CLEAR     61  54  77 N5        30.06R
LONE ROCK      CLEAR     63  54  72 NW7       30.05R
PLATTEVILLE    PTCLDY    60  55  84 N9        30.06R
FORT MC COY    CLEAR     55  52  90 N6        30.10R
CAMP DOUGLAS   CLEAR     54  53  98 NW6       30.07R
VIROQUA        FAIR      55  55  97 N6        30.08S
WIS DELLS      CLEAR     57  51  80 NW7       30.04S
$$

...ELSEWHERE IN WISCONSIN...


CITY           SKY/WX    TMP DP  RH WIND       PRES   REMARKS
MILWAUKEE      PTCLDY    60  51  72 N9        29.95S
MADISON        CLEAR     59  53  80 N8        30.02R
GREEN BAY      CLEAR     56  48  74 N14G21    30.00R
EAU CLAIRE     CLOUDY    59  53  80 N5        30.10S
BLACK RVR FLS  FAIR      57  51  81 N5        30.09S
MEDFORD        CLEAR     50  49  96 NW6       30.09R
WAUSAU         CLEAR     54  51  90 NW10      30.05S
WIS RAPIDS     CLEAR     55  51  86 MISG      30.08R
MARSHFIELD     CLEAR     53  51  93 NW9       30.08R
RICE LAKE      PTCLDY    55  53  94 CALM      30.14R
$$

...NORTHEAST IOWA...


CITY           SKY/WX    TMP DP  RH WIND       PRES   REMARKS
WATERLOO       CLEAR     61  57  87 N13       30.08R
DUBUQUE        CLOUDY    63  54  72 N18G26    30.04R
DECORAH        MOCLDY    57  54  88 N7        30.09R
MASON CITY     CLOUDY    61  58  90 N8        30.15R
CHARLES CITY   CLEAR     59  57  94 N8        30.13R
OELWEIN        CLEAR     61  57  88 N9        30.09R
$$

...ELSEWHERE IN IOWA...


CITY           SKY/WX    TMP DP  RH WIND       PRES   REMARKS
DES MOINES     CLEAR     64  57  78 NW12      30.11R
IOWA CITY      PTCLDY    66  61  84 N8        30.04S
FORT DODGE     CLEAR     61  55  82 NW6       30.15S
MARSHALLTOWN   CLEAR     62  60  93 N12       30.09R
CEDAR RAPIDS   CLEAR     62  59  90 N9        30.04S
$$

...NORTHERN ILLINOIS...


CITY           SKY/WX    TMP DP  RH WIND       PRES   REMARKS
CHICAGO-OHARE  MOCLDY    65  50  58 N18       29.93R
DUPAGE         PTCLDY    63  53  70 N14       29.94R
CHICAGO-MIDWAY MOCLDY    67  52  58 N17G26    29.92R
MOLINE         CLEAR     66  59  78 NW7       30.00R
ROCKFORD       CLEAR     63  54  72 N15       30.01R
STERLING       PTCLDY    64  57  77 NE8       30.00R
PEORIA         CLEAR     65  60  84 NW5       29.97R
$$

NOTE: "FAIR" INDICATES FEW OR NO CLOUDS BELOW 12,000 FEET WITH NO
SIGNIFICANT WEATHER AND/OR OBSTRUCTIONS TO VISIBILITY. WIND
SPEEDS ARE IN MILES-PER-HOUR.



USA.gov is the U.S. government's official web portal to all federal, state and local government web resources and services.